Location: Peebles
(55.6412°N, 3.1714°W)
Time: 21:35:01
(UTC+01:00)

METEOR 2-5 DEB - Visible Passes

Search period start: 23 July 2024 00:00
Search period end: 02 August 2024 00:00
Orbit: 830 x 846 km, 81.2° (Epoch: 18 July)

Date Brightness Start Highest point End Pass type
(mag) Time Alt. Az. Time Alt. Az. Time Alt. Az.
23 Jul ? 02:47:03 10° N 02:52:02 32° ENE 02:57:00 10° ESE visible
24 Jul ? 02:31:15 10° N 02:36:04 29° ENE 02:40:54 10° ESE visible
25 Jul ? 02:15:26 10° N 02:20:05 26° ENE 02:24:44 10° ESE visible
25 Jul ? 03:57:46 10° NNW 04:03:21 74° W 04:08:56 10° S visible
26 Jul ? 01:59:38 10° N 02:04:05 24° NE 02:08:32 10° ESE visible
26 Jul ? 03:41:52 10° NNW 03:47:29 84° WSW 03:53:05 10° S visible
27 Jul ? 01:43:49 10° N 01:48:04 21° NE 01:52:17 10° ESE visible
27 Jul ? 03:25:57 10° NNW 03:31:35 87° ENE 03:37:11 10° SSE visible
28 Jul ? 01:28:01 10° N 01:32:01 19° NE 01:35:59 10° E visible
28 Jul ? 03:10:03 10° NNW 03:15:39 78° ENE 03:21:16 10° SSE visible
29 Jul ? 01:12:14 10° N 01:15:57 18° NE 01:19:39 10° E visible
29 Jul ? 02:54:07 10° NNW 02:59:43 69° ENE 03:05:18 10° SSE visible
30 Jul ? 00:56:28 10° N 00:59:52 16° NE 01:03:15 10° E visible
30 Jul ? 02:38:13 10° N 02:43:46 61° ENE 02:49:18 10° SSE visible
30 Jul ? 04:21:22 10° NNW 04:26:04 29° W 04:30:48 10° SW visible
31 Jul ? 00:40:42 10° NNE 00:43:45 15° NE 00:46:48 10° ENE visible
31 Jul ? 02:22:17 10° N 02:27:47 54° ENE 02:33:16 10° SSE visible
31 Jul ? 04:05:19 10° NNW 04:10:14 32° W 04:15:08 10° SSW visible
01 Aug ? 00:25:01 10° NNE 00:27:37 13° NE 00:30:15 10° ENE visible
01 Aug ? 02:06:21 10° N 02:11:48 48° ENE 02:17:12 10° SE visible
01 Aug ? 03:49:16 10° NNW 03:54:21 37° W 03:59:20 10° SSW visible
